Midland Airpark, TX
on Thursday, December 6, 2018

Thursday
Previous Day Next Day
Daily Summary
 ActualAverage (KMAF)Record (KMAF)
Temperature
Mean Temperature - -  
Max Temperature 55 °F 57 °F 81 °F (2012)
Min Temperature 41 °F 32 °F 8 °F (1950)
Degree Days
Heating Degree Days 17    
Moisture
Dew Point 39 °F   
Average Humidity 74    
Maximum Humidity 89    
Minimum Humidity 55    
Precipitation
Precipitation 0.00 in - - ()
Wind
Wind Speed 10 mph   
Max Wind Speed 16 mph   
Max Gust Speed 21 mph   
Visibility 10 miles   
Events     
Averages and records for this station are not official NWS values.
Key: T is trace of precipitation, MM is missing value
Source: NWS Daily Summary
Seasonal Weather Averages





Time(CST)TemperatureDew PointHumidity Pressure Visibility Wind DirectionWind SpeedGust SpeedPrecipitationEvents Conditions
12:15 AM 46.4 °F 41.9 °F 84% 30.10 in 10.0 miles South 15.0 mph 18.4 mph N/A   Unknown
12:35 AM 46.4 °F 41.5 °F 83% 30.10 in 10.0 miles South 13.8 mph - N/A   Unknown
12:55 AM 46.0 °F 41.4 °F 84% 30.10 in 10.0 miles South 11.5 mph 18.4 mph N/A   Unknown
1:15 AM 45.9 °F 41.4 °F 84% 30.09 in 10.0 miles South 11.5 mph 16.1 mph N/A   Unknown
1:35 AM 45.7 °F 41.2 °F 84% 30.09 in 10.0 miles South 11.5 mph - N/A   Unknown
1:55 AM 45.9 °F 41.5 °F 85% 30.08 in 10.0 miles South 12.7 mph - N/A   Unknown
2:15 AM 45.9 °F 41.5 °F 85% 30.09 in 10.0 miles South 12.7 mph - N/A   Unknown
2:35 AM 45.7 °F 41.9 °F 87% 30.08 in 10.0 miles South 10.4 mph 16.1 mph N/A   Unknown
2:55 AM 45.7 °F 41.9 °F 87% 30.08 in 10.0 miles South 6.9 mph - N/A   Unknown
3:15 AM 45.7 °F 41.9 °F 87% 30.08 in 10.0 miles South 11.5 mph - N/A   Unknown
3:35 AM 45.7 °F 42.1 °F 87% 30.08 in 10.0 miles South 10.4 mph - N/A   Unknown
3:55 AM 45.7 °F 42.1 °F 87% 30.08 in 10.0 miles South 11.5 mph - N/A   Unknown
4:15 AM 45.7 °F 41.9 °F 87% 30.07 in 10.0 miles South 12.7 mph 17.3 mph N/A   Unknown
4:35 AM 45.7 °F 41.9 °F 87% 30.08 in 10.0 miles South 10.4 mph - N/A   Unknown
4:55 AM 45.7 °F 41.9 °F 87% 30.07 in 10.0 miles South 10.4 mph - N/A   Unknown
5:15 AM 45.7 °F 41.9 °F 87% 30.07 in 10.0 miles South 9.2 mph - N/A   Unknown
5:35 AM 45.7 °F 42.1 °F 87% 30.07 in 10.0 miles South 5.8 mph - N/A   Unknown
5:55 AM 45.5 °F 42.1 °F 88% 30.08 in 10.0 miles South 4.6 mph - N/A   Unknown
6:15 AM 45.5 °F 42.3 °F 88% 30.09 in 10.0 miles South 8.1 mph - N/A   Unknown
6:35 AM 45.5 °F 42.3 °F 88% 30.09 in 10.0 miles South 4.6 mph - N/A   Unknown
6:55 AM 45.5 °F 42.3 °F 88% 30.09 in 10.0 miles South 3.5 mph - N/A   Unknown
7:15 AM 45.7 °F 42.4 °F 88% 30.10 in 10.0 miles South 5.8 mph - N/A   Unknown
7:35 AM 45.7 °F 42.4 °F 88% 30.10 in 10.0 miles South 5.8 mph - N/A   Unknown
7:55 AM 45.7 °F 42.6 °F 89% 30.11 in 10.0 miles South 9.2 mph - N/A   Unknown
8:15 AM 45.9 °F 42.4 °F 88% 30.13 in 10.0 miles Calm Calm - N/A   Unknown
8:35 AM 46.4 °F 42.8 °F 87% 30.13 in 10.0 miles Calm Calm - N/A   Unknown
8:55 AM 46.8 °F 43.2 °F 87% 30.15 in 10.0 miles Calm Calm - N/A   Unknown
9:15 AM 47.5 °F 43.7 °F 87% 30.17 in 10.0 miles Calm Calm - N/A   Unknown
9:35 AM 48.2 °F 44.1 °F 86% 30.18 in 10.0 miles Calm Calm - N/A   Unknown
9:55 AM 49.1 °F 44.2 °F 83% 30.19 in 10.0 miles North 4.6 mph - N/A   Unknown
10:15 AM 48.4 °F 43.7 °F 84% 30.20 in 10.0 miles NNE 9.2 mph - N/A   Unknown
10:35 AM 48.4 °F 43.7 °F 84% 30.19 in 10.0 miles NE 10.4 mph - N/A   Unknown
10:55 AM 49.3 °F 43.9 °F 82% 30.21 in 10.0 miles NNE 8.1 mph - N/A   Unknown
11:15 AM 50.0 °F 44.1 °F 80% 30.20 in 10.0 miles NNE 8.1 mph - N/A   Unknown
11:35 AM 51.3 °F 44.4 °F 77% 30.21 in 10.0 miles NNE 9.2 mph - N/A   Unknown
11:55 AM 52.3 °F 44.4 °F 74% 30.21 in 10.0 miles North 8.1 mph - N/A   Unknown
12:15 PM 52.7 °F 44.4 °F 73% 30.19 in 10.0 miles NNE 9.2 mph - N/A   Unknown
12:35 PM 54.3 °F 45.1 °F 71% 30.18 in 10.0 miles NNE 8.1 mph - N/A   Unknown
12:55 PM 55.4 °F 44.8 °F 67% 30.17 in 10.0 miles NE 10.4 mph - N/A   Unknown
1:15 PM 53.8 °F 40.5 °F 61% 30.17 in 7.0 miles North 16.1 mph 20.7 mph N/A   Unknown
1:35 PM 52.7 °F 37.9 °F 57% 30.17 in 7.0 miles NNE 13.8 mph - N/A   Unknown
1:55 PM 51.8 °F 37.0 °F 57% 30.16 in 10.0 miles NNE 13.8 mph 19.6 mph N/A   Unknown
2:15 PM 51.6 °F 36.5 °F 56% 30.17 in 10.0 miles NNE 11.5 mph 19.6 mph N/A   Unknown
2:35 PM 50.9 °F 35.4 °F 55% 30.17 in 10.0 miles North 12.7 mph 18.4 mph N/A   Unknown
2:55 PM 50.7 °F 35.4 °F 56% 30.17 in 10.0 miles NNE 13.8 mph - N/A   Unknown
3:15 PM 50.0 °F 35.6 °F 58% 30.17 in 10.0 miles NNE 10.4 mph - N/A   Unknown
3:35 PM 49.6 °F 35.4 °F 58% 30.18 in 10.0 miles NNE 11.5 mph 17.3 mph N/A   Unknown
3:55 PM 49.6 °F 34.7 °F 56% 30.20 in 10.0 miles NNE 9.2 mph - N/A   Unknown
4:15 PM 49.1 °F 34.2 °F 56% 30.20 in 10.0 miles North 10.4 mph - N/A   Unknown
4:35 PM 48.7 °F 34.0 °F 57% 30.22 in 10.0 miles North 6.9 mph - N/A   Unknown
4:55 PM 48.4 °F 34.3 °F 58% 30.21 in 10.0 miles NNE 10.4 mph - N/A   Unknown
5:15 PM 48.0 °F 34.5 °F 60% 30.22 in 10.0 miles NE 10.4 mph - N/A   Unknown
5:35 PM 47.3 °F 34.7 °F 62% 30.22 in 10.0 miles NE 11.5 mph - N/A   Unknown
5:55 PM 46.9 °F 34.3 °F 62% 30.24 in 10.0 miles NNE 10.4 mph - N/A   Unknown
6:15 PM 46.6 °F 34.3 °F 62% 30.24 in 10.0 miles NE 9.2 mph - N/A   Unknown
6:35 PM 46.4 °F 33.6 °F 61% 30.24 in 10.0 miles NE 11.5 mph - N/A   Unknown
6:55 PM 46.4 °F 33.1 °F 60% 30.25 in 10.0 miles NE 10.4 mph - N/A   Unknown
7:15 PM 46.0 °F 32.9 °F 60% 30.25 in 10.0 miles NE 10.4 mph - N/A   Unknown
7:35 PM 45.5 °F 32.5 °F 61% 30.26 in 10.0 miles NE 12.7 mph - N/A   Unknown
7:55 PM 44.8 °F 32.5 °F 62% 30.26 in 10.0 miles NE 11.5 mph - N/A   Unknown
8:15 PM 44.6 °F 32.4 °F 62% 30.27 in 10.0 miles NE 12.7 mph - N/A   Unknown
8:35 PM 43.9 °F 32.4 °F 64% 30.26 in 10.0 miles NE 12.7 mph - N/A   Unknown
8:55 PM 43.7 °F 32.2 °F 64% 30.25 in 10.0 miles NE 15.0 mph - N/A   Unknown
9:15 PM 42.8 °F 32.0 °F 66% 30.23 in 10.0 miles NNE 13.8 mph - N/A   Unknown
9:35 PM 42.1 °F 32.0 °F 67% 30.28 in 10.0 miles East 8.1 mph - N/A   Unknown
9:55 PM 42.3 °F 32.0 °F 67% 30.28 in 10.0 miles ENE 9.2 mph - N/A   Unknown
10:15 PM 41.9 °F 32.7 °F 70% 30.28 in 10.0 miles ENE 11.5 mph - N/A   Unknown
10:35 PM 41.5 °F 32.9 °F 71% 30.31 in 10.0 miles NE 9.2 mph - N/A   Unknown
10:55 PM 41.5 °F 32.9 °F 71% 30.30 in 10.0 miles ENE 8.1 mph - N/A   Unknown
11:15 PM 41.4 °F 32.7 °F 71% 30.29 in 10.0 miles NE 10.4 mph - N/A   Unknown
11:35 PM 41.2 °F 32.7 °F 72% 30.29 in 10.0 miles ENE 9.2 mph - N/A   Unknown
11:55 PM 41.0 °F 32.9 °F 73% 30.28 in 10.0 miles NE 10.4 mph - N/A   Unknown
 Powered By Weather Underground